(69035) = 2001 RU147 = 2002 XR30

Discovered at Socorro on 2002-12-06 by LINEAR.

Orbit

Orbit type: Main Belt

Note: WebGL enabled browser required.

epoch2023-09-13.0
epoch JD2460200.5
perihelion date2020-08-27.63102
perihelion JD2459089.13102
argument of perihelion (°)18.14562
ascending node (°)4.92724
inclination (°)12.29068
eccentricity0.0420440
perihelion distance (AU)2.6417870
Tisserand w.r.t. Jupiter3.3
ΔV w.r.t. Earth (km/sec)10.9
semimajor axis (AU)2.7577330
mean anomaly (°)239.18491
mean daily motion (°/day)0.21521650
aphelion distance (AU)2.874
period (years)4.58
P-vector [x]0.92062032
P-vector [y]0.32666700
P-vector [z]0.21388526
Q-vector [x]-0.39003069
Q-vector [y]0.74371695
Q-vector [z]0.54291910
absolute magnitude14.67
phase slope0.15
uncertainty0
referenceMPEC 2024-A48
observations used1699
oppositions21
arc length (days)10335
first opposition used1995
last opposition used2023
residual rms (arc-secs)0.66
perturbers coarse indicatorM-v
perturbers precise indicator003Ek
first observation date used1995-03-27.0
last observation date used2023-07-12.0
computer nameMPCLINUX
JD of orbit computation2456847.759685
perihelion JD uncertainty (days)2.4138E-04
argument of perihelion uncertainty (°)5.6921E-05
ascending node uncertainty (°)1.9322E-05
inclination uncertainty (°)6.4059E-06
eccentricity uncertainty 6.3714E-08
perihelion distance uncertainty (AU)1.7472E-07
Minimum Orbit Intersection Distances (in AU)
for orbit epoch: 2460200.5, reference: E2024-A48
Mercury2.28313
Venus1.9212
Earth1.64397
Mars1.17436
Jupiter2.3071
Saturn6.41903
Uranus15.5973
Neptune27.2111

Observations

1736 total observations over interval: 1995 03 27.21084 – 2023 07 12.821507
These data are available for download (format description).

Date (UT) J2000 RA J2000 Dec Magn Location Ref
1995 03 27.21084 12 22 16.82 -02 41 58.9 18.0 V 691 – Steward Observatory, Kitt Peak-Spacewatch MPS 80148
1995 03 27.23205 12 22 15.57 -02 41 56.4 17.9 V 691 – Steward Observatory, Kitt Peak-Spacewatch MPS 80148
1995 03 27.25330 12 22 14.34 -02 41 53.9 17.8 V 691 – Steward Observatory, Kitt Peak-Spacewatch MPS 80148
1997 10 30.35695 01 17 50.51 +16 50 40.6 19.1 V 566 – Haleakala-NEAT/GEODSS MPS 82697
1997 10 30.36759 01 17 49.92 +16 50 38.8 18.8 V 566 – Haleakala-NEAT/GEODSS MPS 82697
1997 10 30.37779 01 17 49.31 +16 50 38.5 19.1 V 566 – Haleakala-NEAT/GEODSS MPS 82697
1999 01 19.42880 09 36 00.53 +30 31 30.8 18.5   704 – Lincoln Laboratory ETS, New Mexico MPS 70100
1999 01 19.47254 09 35 58.09 +30 31 40.2 19.0   704 – Lincoln Laboratory ETS, New Mexico MPS 70100
1999 01 19.49442 09 35 56.93 +30 31 46.4 19.5   704 – Lincoln Laboratory ETS, New Mexico MPS 70100
1999 01 19.51639 09 35 55.64 +30 31 49.5 19.1   704 – Lincoln Laboratory ETS, New Mexico MPS 70100
1999 02 18.19927 09 05 11.95 +31 22 04.6 18.5 R 699 – Lowell Observatory-LONEOS MPS 70100
1999 02 18.22474 09 05 10.32 +31 22 03.8   699 – Lowell Observatory-LONEOS MPS 70100
1999 02 18.25024 09 05 08.82 +31 22 02.2   699 – Lowell Observatory-LONEOS MPS 70100
1999 02 18.45815 09 04 56.38 +31 21 50.4 19.9 V 566 – Haleakala-NEAT/GEODSS MPS 70100
1999 02 18.47498 09 04 55.34 +31 21 50.3 19.3 V 566 – Haleakala-NEAT/GEODSS MPS 70100
1999 02 18.50892 09 04 53.31 +31 21 47.0 19.3 V 566 – Haleakala-NEAT/GEODSS MPS 70100
2000 05 10.27185 14 21 59.10 -27 00 04.1 18.4   704 – Lincoln Laboratory ETS, New Mexico MPS 82697
2000 05 10.28447 14 21 58.35 -27 00 03.0 18.7   704 – Lincoln Laboratory ETS, New Mexico MPS 82697
2000 05 10.32013 14 21 56.16 -26 59 58.7 18.9   704 – Lincoln Laboratory ETS, New Mexico MPS 82697
2001 07 22.30585 22 25 11.40 -24 42 29.7 18.7   644 – Palomar Mountain/NEAT MPS 81515
2001 07 22.31565 22 25 11.07 -24 42 31.6 18.7   644 – Palomar Mountain/NEAT MPS 81515
2001 07 22.32984 22 25 10.51 -24 42 34.2 18.3   644 – Palomar Mountain/NEAT MPS 81515
2001 08 01.33909 22 18 05.04 -25 14 36.9 18.7   644 – Palomar Mountain/NEAT MPS 81515
2001 08 01.34979 22 18 04.49 -25 14 38.9 18.6   644 – Palomar Mountain/NEAT MPS 81515
2001 08 01.36100 22 18 03.92 -25 14 41.1 18.7   644 – Palomar Mountain/NEAT MPS 81515
2001 09 10.19298 21 40 44.33 -25 38 48.5 18.3 R 699 – Lowell Observatory-LONEOS MPS 57170
2001 09 10.20393 21 40 43.75 -25 38 46.9   699 – Lowell Observatory-LONEOS MPS 57170
2001 09 10.21490 21 40 43.32 -25 38 44.8   699 – Lowell Observatory-LONEOS MPS 57170
2001 09 10.22590 21 40 42.83 -25 38 42.9   699 – Lowell Observatory-LONEOS MPS 57170
2001 09 11.27179 21 39 55.02 -25 35 52.7 18.6   704 – Lincoln Laboratory ETS, New Mexico MPS 57170
2001 09 11.28688 21 39 54.30 -25 35 48.9 19.2   704 – Lincoln Laboratory ETS, New Mexico MPS 57170
2001 09 11.30206 21 39 53.61 -25 35 46.6 18.8   704 – Lincoln Laboratory ETS, New Mexico MPS 57170
2001 09 11.31715 21 39 52.90 -25 35 43.2 18.9   704 – Lincoln Laboratory ETS, New Mexico MPS 57170
2001 09 11.33232 21 39 52.15 -25 35 41.2 18.8   704 – Lincoln Laboratory ETS, New Mexico MPS 57170
2001 09 25.12317 21 31 55.84 -24 42 02.1 18.7   704 – Lincoln Laboratory ETS, New Mexico MPS 81515
2001 09 25.14141 21 31 55.40 -24 41 56.9 19.5   704 – Lincoln Laboratory ETS, New Mexico MPS 81515
2001 09 25.15640 21 31 54.96 -24 41 51.7 19.1   704 – Lincoln Laboratory ETS, New Mexico MPS 81515
2001 11 18.25472 21 48 11.49 -18 06 35.4 20.5   608 – Haleakala-AMOS MPS 81515
2001 11 18.26605 21 48 12.07 -18 06 29.3 20.4   608 – Haleakala-AMOS MPS 81515
2001 11 18.27701 21 48 12.59 -18 06 23.4 20.8   608 – Haleakala-AMOS MPS 81515
2002 10 30.33704 05 07 01.18 +38 11 24.3 19.0   704 – Lincoln Laboratory ETS, New Mexico MPS 81515
2002 10 30.35381 05 07 00.71 +38 11 30.2 19.7   704 – Lincoln Laboratory ETS, New Mexico MPS 81515
2002 10 30.40436 05 06 59.15 +38 11 49.2 19.2   704 – Lincoln Laboratory ETS, New Mexico MPS 81515
2002 11 07.36027 05 02 10.65 +38 54 57.1 18.5   704 – Lincoln Laboratory ETS, New Mexico MPS 70100
2002 11 07.37736 05 02 09.91 +38 55 01.4 18.8   704 – Lincoln Laboratory ETS, New Mexico MPS 70100
2002 11 07.37787 05 02 09.78 +38 55 02.8 19.3   704 – Lincoln Laboratory ETS, New Mexico MPS 70100
2002 11 07.39438 05 02 09.14 +38 55 05.9 19.1   704 – Lincoln Laboratory ETS, New Mexico MPS 70100
2002 11 07.39489 05 02 09.11 +38 55 08.1 19.5   704 – Lincoln Laboratory ETS, New Mexico MPS 70100
2002 11 07.41199 05 02 08.32 +38 55 10.6 19.1   704 – Lincoln Laboratory ETS, New Mexico MPS 70100
2002 11 07.41251 05 02 08.17 +38 55 12.7 19.2   704 – Lincoln Laboratory ETS, New Mexico MPS 70101
2002 11 07.43019 05 02 07.43 +38 55 18.4 19.1   704 – Lincoln Laboratory ETS, New Mexico MPS 70101
2002 11 15.37456 04 55 20.46 +39 29 34.6 18.6   704 – Lincoln Laboratory ETS, New Mexico MPS 70101
2002 11 15.40975 04 55 18.40 +39 29 42.5 18.5   704 – Lincoln Laboratory ETS, New Mexico MPS 70101
2002 11 15.42737 04 55 17.32 +39 29 46.0 18.8   704 – Lincoln Laboratory ETS, New Mexico MPS 70101
2002 11 15.44503 04 55 16.33 +39 29 49.8 19.1   704 – Lincoln Laboratory ETS, New Mexico MPS 70101
2002 12 06.28236 04 31 44.28 +40 00 20.3 19.4   704 – Lincoln Laboratory ETS, New Mexico MPS 68400
2002 12 06.29735 04 31 43.19 +40 00 19.2 19.3   704 – Lincoln Laboratory ETS, New Mexico MPS 68400
2002 12 06.31215 04 31 42.24 +40 00 18.4   704 – Lincoln Laboratory ETS, New Mexico MPS 406522
2002 12 06.31227 04 31 42.13 +40 00 18.5 19.1   704 – Lincoln Laboratory ETS, New Mexico MPS 68400
2002 12 06.32694 04 31 41.12 +40 00 18.2   704 – Lincoln Laboratory ETS, New Mexico MPS 406522
2002 12 06.32706 04 31 41.07 +40 00 17.6 19.2   704 – Lincoln Laboratory ETS, New Mexico MPS 68400
2002 12 06.34152 04 31 40.16 +40 00 16.8   704 – Lincoln Laboratory ETS, New Mexico MPS 406522
2002 12 06.34164 04 31 39.98 +40 00 17.0 18.9   704 – Lincoln Laboratory ETS, New Mexico MPS 68400
2002 12 07.23074 04 30 37.13 +39 59 26.8 19.0   704 – Lincoln Laboratory ETS, New Mexico MPS 68400
2002 12 07.24606 04 30 36.09 +39 59 26.9 19.5   704 – Lincoln Laboratory ETS, New Mexico MPS 68400
2002 12 07.26150 04 30 34.80 +39 59 25.3 18.6   704 – Lincoln Laboratory ETS, New Mexico MPS 68400
2002 12 07.27670 04 30 33.72 +39 59 24.3 18.7   704 – Lincoln Laboratory ETS, New Mexico MPS 68400
2002 12 15.22621 04 21 31.38 +39 44 35.2 18.7   704 – Lincoln Laboratory ETS, New Mexico MPS 68400
2002 12 15.24181 04 21 30.37 +39 44 32.3 18.8   704 – Lincoln Laboratory ETS, New Mexico MPS 68400
2002 12 15.25718 04 21 29.32 +39 44 29.9 18.9   704 – Lincoln Laboratory ETS, New Mexico MPS 68400
2002 12 15.27257 04 21 28.32 +39 44 28.0 19.1   704 – Lincoln Laboratory ETS, New Mexico MPS 68400
2002 12 15.28796 04 21 27.38 +39 44 26.1 20.1   704 – Lincoln Laboratory ETS, New Mexico MPS 68400
2002 12 29.24058 04 08 48.07 +38 54 02.0 19.2   704 – Lincoln Laboratory ETS, New Mexico MPS 70101
2002 12 29.25575 04 08 47.36 +38 53 57.8 19.6   704 – Lincoln Laboratory ETS, New Mexico MPS 70101
2002 12 29.26987 04 08 46.60 +38 53 54.2 19.5   704 – Lincoln Laboratory ETS, New Mexico MPS 70101
2003 02 02.18385 04 04 47.85 +36 20 14.7 19.5   704 – Lincoln Laboratory ETS, New Mexico MPS 71667
2003 02 02.19871 04 04 48.24 +36 20 11.7 19.6   704 – Lincoln Laboratory ETS, New Mexico MPS 71667
2003 02 02.21348 04 04 48.51 +36 20 08.0 19.6   704 – Lincoln Laboratory ETS, New Mexico MPS 71667
2003 12 28.46385 12 00 58.99 +07 04 34.5 19.5   704 – Lincoln Laboratory ETS, New Mexico MPS 96300
2003 12 28.47715 12 00 59.41 +07 04 30.5 19.8   704 – Lincoln Laboratory ETS, New Mexico MPS 96300
2003 12 28.49029 12 00 59.81 +07 04 28.3 20.2   704 – Lincoln Laboratory ETS, New Mexico MPS 96300
2003 12 28.50442 12 01 00.18 +07 04 24.7 20.1   704 – Lincoln Laboratory ETS, New Mexico MPS 96300
2003 12 28.51772 12 01 00.63 +07 04 21.5 20.2   704 – Lincoln Laboratory ETS, New Mexico MPS 96300
2004 01 18.49562 12 07 26.26 +06 08 03.8 19.3 R 691 – Steward Observatory, Kitt Peak-Spacewatch MPS 107987
2004 01 18.51795 12 07 26.30 +06 08 01.9 19.2 R 691 – Steward Observatory, Kitt Peak-Spacewatch MPS 107987
